Location: Newark
(11.2914°S, 14.4718°E)
Time: 18:55:01
(UTC+00:00)

Explorer 7 - All Passes

Search period start: 17 October 2019 00:00
Search period end: 27 October 2019 00:00
Orbit: 485 x 680 km, 50.3° (Epoch: 17 October)

Date Brightness Start Highest point End Pass type
(mag) Time Alt. Az. Time Alt. Az. Time Alt. Az.
17 Oct - 07:55:09 10° SW 07:59:19 71° NW 08:03:12 10° NNE daylight
17 Oct - 20:02:15 10° N 20:06:09 26° NE 20:10:11 10° ESE night (unlit)
17 Oct - 21:42:36 10° WNW 21:46:37 26° SW 21:50:45 10° S night (unlit)
18 Oct - 06:21:03 10° S 06:23:43 16° SE 06:26:16 10° E daylight
18 Oct - 08:00:31 10° WSW 08:04:12 31° NW 08:07:42 10° N daylight
18 Oct - 20:06:30 10° NNW 20:11:01 52° NE 20:15:46 10° SE night (unlit)
18 Oct - 21:49:05 10° W 21:51:45 15° SW 21:54:28 10° SSW night (unlit)
19 Oct - 06:24:58 10° SSW 06:28:50 31° SE 06:32:26 10° ENE daylight
19 Oct - 08:06:42 10° W 08:09:03 15° NW 08:11:20 10° NNW daylight
19 Oct - 20:11:18 10° NW 20:15:57 79° SW 20:20:50 10° SE night (unlit)
20 Oct - 06:29:32 10° SSW 06:33:51 67° SE 06:37:51 10° NE daylight
20 Oct - 18:37:47 10° NNE 18:40:38 16° NE 18:43:34 10° E night (unlit)
20 Oct - 20:16:35 10° WNW 20:20:57 39° SW 20:25:32 10° SSE night (unlit)
21 Oct - 04:57:02 10° SSE 04:58:03 11° SE 04:59:03 10° ESE daylight
21 Oct - 06:34:33 10° SW 06:38:47 55° NW 06:42:43 10° NNE daylight
21 Oct - 18:41:27 10° N 18:45:29 32° NE 18:49:44 10° ESE visible
21 Oct - 20:22:26 10° W 20:26:01 21° SW 20:29:44 10° S night (unlit)
22 Oct - 04:59:53 10° S 05:03:13 21° SE 05:06:24 10° E daylight
22 Oct - 06:40:06 10° WSW 06:43:39 25° NW 06:47:00 10° N daylight
22 Oct - 18:45:53 10° NNW 18:50:22 65° NE 18:55:08 10° SE visible
22 Oct - 20:29:32 10° WSW 20:31:11 12° SW 20:32:53 10° SSW night (unlit)
23 Oct - 05:04:06 10° SSW 05:08:19 40° SE 05:12:14 10° ENE daylight
23 Oct - 06:46:46 10° W 06:48:29 12° WNW 06:50:08 10° NNW daylight
23 Oct - 18:50:50 10° NW 18:55:18 62° SW 19:00:05 10° SSE visible
24 Oct - 05:08:49 10° SW 05:13:17 86° SE 05:17:27 10° NE daylight
24 Oct - 17:16:47 10° N 17:19:59 19° NE 17:23:19 10° ESE visible
24 Oct - 18:56:17 10° WNW 19:00:20 31° SW 19:04:37 10° SSE visible
25 Oct - 03:35:09 10° SSE 03:37:33 14° SE 03:39:52 10° ESE visible
25 Oct - 05:13:58 10° SW 05:18:12 43° NW 05:22:08 10° NNE daylight
25 Oct - 17:20:44 10° NNW 17:24:50 39° NE 17:29:11 10° ESE visible
25 Oct - 19:02:25 10° W 19:05:26 17° SW 19:08:35 10° S visible
26 Oct - 03:38:50 10° S 03:42:41 26° SE 03:46:20 10° ENE visible
26 Oct - 05:19:43 10° WSW 05:23:02 21° NW 05:26:13 10° N daylight
26 Oct - 17:25:20 10° NW 17:29:43 81° NE 17:34:26 10° SE visible
